AMC-15

Last updated on Tue Jul 01 2025 00:02:44 GMT+0000 (Coordinated Universal Time)

1 28446U 04041A 25181.50648549 -.00000089 00000+0 00000+0 0 9997 2 28446 0.0189 29.8634 0002465 54.3522 271.8688 1.00272439 75789
UTC large
Height (km)
Speed (km/s)
/
Latitude / Longitude
Inclination (degrees)
Orbital Period (minutes)
Azimuth
Elevation
Range (km)
Doppler Factor

Next 0 passes for location: London (51.5072 / 0.1276)

Sorry there are no passes over London.